TimeEST,TemperatureF,Dew PointF,Humidity,Sea Level PressureIn,VisibilityMPH,Wind Direction,Wind SpeedMPH,Gust SpeedMPH,PrecipitationIn,Events,Conditions,WindDirDegrees,DateUTC
12:54 AM,39.9,37.9,93,29.67,4.0,North,5.8,-,0.00,Rain,Light Rain,10,2012-03-01 05:54:00
1:06 AM,39.2,37.4,93,29.66,2.5,NNE,4.6,-,0.01,Rain,Light Rain,20,2012-03-01 06:06:00
1:24 AM,39.2,37.4,93,29.65,3.0,ENE,3.5,-,0.01,Rain,Light Rain,60,2012-03-01 06:24:00
1:31 AM,39.2,37.4,93,29.65,3.0,ESE,3.5,-,0.02,Rain,Light Rain,110,2012-03-01 06:31:00
1:46 AM,39.2,37.4,93,29.64,2.5,SE,3.5,-,0.02,Rain,Light Rain,140,2012-03-01 06:46:00
1:54 AM,39.0,37.9,96,29.65,3.0,SSE,4.6,-,0.03,Rain,Rain,150,2012-03-01 06:54:00
2:54 AM,39.0,37.9,96,29.63,5.0,East,4.6,-,0.07,Rain,Light Rain,80,2012-03-01 07:54:00
3:01 AM,39.2,37.4,93,29.61,6.0,East,4.6,-,0.00,Rain,Light Rain,100,2012-03-01 08:01:00
3:33 AM,39.2,37.4,93,29.62,6.0,Calm,Calm,-,0.01,Rain,Light Rain,0,2012-03-01 08:33:00
3:54 AM,39.2,37.4,93,29.60,7.0,East,4.6,-,N/A,Rain,Light Rain,80,2012-03-01 08:54:00
4:05 AM,39.2,37.4,93,29.60,8.0,SSE,3.5,-,0.01,Rain,Light Rain,160,2012-03-01 09:05:00
4:54 AM,39.0,37.0,93,29.61,9.0,ENE,4.6,-,0.01,Rain,Light Rain,70,2012-03-01 09:54:00
5:21 AM,39.2,37.4,93,29.59,6.0,ESE,3.5,-,0.00,,Overcast,120,2012-03-01 10:21:00
5:40 AM,39.2,37.4,93,29.63,5.0,NW,5.8,-,0.00,Rain,Light Rain,320,2012-03-01 10:40:00
5:54 AM,39.0,37.0,93,29.62,5.0,East,4.6,-,0.01,Rain,Light Rain,80,2012-03-01 10:54:00
6:28 AM,39.2,37.4,93,29.62,9.0,Calm,Calm,-,0.00,,Overcast,0,2012-03-01 11:28:00
6:54 AM,39.2,37.4,93,29.62,8.0,Calm,Calm,-,N/A,,Overcast,0,2012-03-01 11:54:00
7:54 AM,39.0,37.9,96,29.64,5.0,Calm,Calm,-,0.00,,Overcast,0,2012-03-01 12:54:00
8:52 AM,39.2,37.4,93,29.65,5.0,Calm,Calm,-,0.00,Rain,Light Rain,0,2012-03-01 13:52:00
8:54 AM,39.9,37.9,93,29.66,5.0,Calm,Calm,-,0.00,Rain,Light Rain,0,2012-03-01 13:54:00
9:47 AM,39.2,37.4,93,29.66,7.0,Calm,Calm,-,0.00,,Overcast,0,2012-03-01 14:47:00
9:54 AM,39.9,37.9,93,29.68,7.0,Calm,Calm,-,0.00,,Overcast,0,2012-03-01 14:54:00
10:01 AM,39.2,37.4,93,29.67,8.0,Calm,Calm,-,N/A,,Overcast,0,2012-03-01 15:01:00
10:31 AM,41.0,37.4,87,29.67,7.0,Calm,Calm,-,N/A,,Overcast,0,2012-03-01 15:31:00
10:54 AM,41.0,39.2,93,29.69,6.0,SSE,3.5,-,N/A,,Overcast,150,2012-03-01 15:54:00
11:02 AM,41.0,39.2,93,29.69,6.0,Calm,Calm,-,N/A,,Overcast,0,2012-03-01 16:02:00
11:28 AM,41.0,39.2,93,29.70,7.0,SE,3.5,-,N/A,,Overcast,140,2012-03-01 16:28:00
11:54 AM,41.0,39.0,93,29.72,7.0,Calm,Calm,-,0.00,Rain,Light Rain,0,2012-03-01 16:54:00
12:54 PM,43.0,39.0,86,29.72,9.0,Calm,Calm,-,0.00,,Overcast,0,2012-03-01 17:54:00
1:54 PM,43.0,35.1,74,29.74,10.0,West,6.9,-,0.00,Rain,Light Rain,270,2012-03-01 18:54:00
2:54 PM,43.0,34.0,71,29.78,10.0,WSW,9.2,-,N/A,,Overcast,240,2012-03-01 19:54:00
3:54 PM,42.8,32.0,66,29.79,10.0,West,10.4,-,N/A,,Overcast,260,2012-03-01 20:54:00
4:44 PM,39.2,33.8,81,29.82,7.0,West,11.5,19.6,N/A,Rain,Light Rain,260,2012-03-01 21:44:00
4:54 PM,39.9,35.1,83,29.83,10.0,NW,4.6,-,0.01,Rain,Light Rain,310,2012-03-01 21:54:00
5:04 PM,39.2,35.6,87,29.82,10.0,West,3.5,-,0.00,,Overcast,270,2012-03-01 22:04:00
5:54 PM,39.0,34.0,82,29.86,10.0,West,6.9,-,0.00,,Overcast,270,2012-03-01 22:54:00
6:54 PM,39.0,33.1,79,29.88,10.0,West,5.8,-,N/A,,Overcast,270,2012-03-01 23:54:00
7:54 PM,39.0,32.0,76,29.91,10.0,West,6.9,-,N/A,,Overcast,260,2012-03-02 00:54:00
8:54 PM,39.0,32.0,76,29.93,10.0,West,8.1,-,N/A,,Overcast,260,2012-03-02 01:54:00
9:54 PM,39.0,32.0,76,29.94,10.0,West,4.6,-,N/A,,Overcast,280,2012-03-02 02:54:00
10:54 PM,37.9,32.0,79,29.95,10.0,West,6.9,-,N/A,,Overcast,280,2012-03-02 03:54:00
11:54 PM,37.9,32.0,79,29.96,10.0,West,6.9,-,N/A,,Overcast,280,2012-03-02 04:54:00